Location: Newark
(42.2947°N, 5.1925°W)
Time: 18:57:32
(UTC+00:00)

STARLINK 1041 - Pass Details

Date: 20 December 2019
Orbit: 549 x 551 km, 53.0° (Epoch: 17 January)

Event Time Altitude Azimuth Distance (km) Brightness Sun altitude
Rises 19:14:22 0° 216° (SW) 2,710 7.8 -25.6°
Reaches altitude 10° 19:16:37 10° 211° (SSW) 1,827 6.7 -26.0°
Enters shadow 19:18:48 28° 195° (SSW) 1,056 5.2 -26.4°
